Location: Caltech
(34.1382°N, 118.1253°W)
Time: 17:41:51
(UTC-07:00)

Uribyol 2 - Visible Passes

Search period start: 20 August 2017 00:00
Search period end: 30 August 2017 00:00
Orbit: 782 x 797 km, 98.8° (Epoch: 20 August)

Date Brightness Start Highest point End Pass type
(mag) Time Alt. Az. Time Alt. Az. Time Alt. Az.
20 Aug ? 03:49:10 10° NNE 03:53:56 37° E 03:56:03 26° SE visible
20 Aug ? 05:29:12 10° NNW 05:33:06 22° WNW 05:36:46 11° WSW visible
21 Aug ? 03:20:32 10° NE 03:24:06 19° E 03:25:57 16° ESE visible
21 Aug ? 04:58:49 10° N 05:03:40 42° WNW 05:06:40 21° SW visible
22 Aug ? 04:28:55 10° NNE 04:34:06 85° WNW 04:36:33 32° SSW visible
23 Aug ? 03:59:25 10° NNE 04:04:25 47° E 04:06:28 31° SSE visible
23 Aug ? 05:40:05 10° NNW 05:43:26 18° WNW 05:46:48 10° WSW visible
24 Aug ? 03:30:30 10° NE 03:34:37 24° E 03:36:22 20° SE visible
24 Aug ? 05:09:26 10° N 05:14:02 34° WNW 05:17:04 19° WSW visible
25 Aug ? 03:03:07 10° ENE 03:04:42 11° E 03:06:16 10° ESE visible
25 Aug ? 04:39:23 10° N 04:44:31 67° WNW 04:46:58 31° SSW visible
26 Aug ? 04:09:45 10° NNE 04:14:53 61° ESE 04:16:52 36° SSE visible
26 Aug ? 05:51:08 10° NNW 05:53:45 14° WNW 05:56:23 10° W visible
27 Aug ? 03:40:36 10° NE 03:45:08 30° E 03:46:45 25° SE visible
27 Aug ? 05:20:07 10° NNW 05:24:25 27° WNW 05:27:28 16° WSW visible
28 Aug ? 03:12:22 10° ENE 03:15:15 15° E 03:16:39 14° ESE visible
28 Aug ? 04:49:54 10° N 04:54:56 53° WNW 04:57:22 29° SW visible
29 Aug ? 04:20:08 10° NNE 04:25:20 78° ESE 04:27:16 40° S visible
